Flag for Czech Republic Weather past 2 weeks in Ostrava, Czech Republic

Now
48 °F

Light rain. Overcast.


Feels Like: 43 °F
Forecast: 40 / 51 °F
Wind: 9 mph from Southwest

Location: Ostrava / Mosnov

Current Time: Mar 29, 2015 at 10:02:00 PM

Latest Report: Mar 29, 2015 at 9:00 PM


Visibility: 7 mi

Pressure: 29.59 "Hg

Humidity: 83%

Dew point: 43 °F

Location of OstravaLocation

Historic Weather in Ostrava — Graph

°F

Ostrava temperature yesterday

Maximum temperature yesterday: 48 °F (at 12:00 PM)
Minimum temperature yesterday: 37 °F (at 6:00 AM)
Average temperature yesterday: 42 °F

Past Weeks' High & Low Weather Summary

 TemperatureHumidityPressure
High64 °F (Mar 25, 12:00 PM)98% (Mar 15, 9:00 AM)30.60 "Hg (Mar 15, 9:00 AM)
Low26 °F (Mar 20, 6:00 AM)31% (Mar 18, 2:00 PM)29.62 "Hg (Mar 29, 8:00 PM)
Average43 °F69%30.15 "Hg
* Reported Mar 14 7:00 PM — Mar 29 8:00 PM, Ostrava, Weather by CustomWeather, © 2015

Note: Actual official high and low records may vary slightly from our data, if they occured in-between our weather recording intervals... More about our weather records

Advertising

Ostrava weather history for previous 24 hours

 ConditionsComfort  
Time TempWeatherWind HumidityBarometerVisibility
8:00 PM
Sun, Mar 29
48 °FOvercast.8 mph77%29.62 "Hg9 mi
7:00 PM48 °FOvercast.6 mph76%29.64 "Hg9 mi
6:00 PM48 °FPartly sunny.7 mph75%29.65 "Hg9 mi
5:00 PM48 °FOvercast.7 mph72%29.68 "Hg9 mi
4:00 PM47 °FOvercast.8 mph76%29.71 "Hg11 mi
3:00 PM48 °FOvercast.9 mph72%29.73 "Hg16 mi
2:00 PM46 °FOvercast.9 mph73%29.76 "Hg16 mi
1:00 PM47 °FOvercast.9 mph68%29.77 "Hg16 mi
12:00 PM46 °FPartly sunny.10 mph67%29.79 "Hg11 mi
11:00 AM44 °FPartly sunny.7 mph68%29.81 "Hg9 mi
10:00 AM43 °FOvercast.6 mph74%29.85 "Hg7 mi
9:00 AM38 °FFog.5 mph88%29.89 "Hg4 mi
8:00 AM36 °FFog.3 mph97%29.91 "Hg2 mi
7:00 AM32 °FFog.3 mph97%29.93 "Hg2 mi
6:00 AM28 °FFog.3 mph96%29.95 "Hg3 mi
4:00 AM31 °FFog.3 mph96%29.98 "Hg2 mi
3:00 AM31 °FFog.2 mph95%30.01 "Hg3 mi
1:00 AM31 °FFog.3 mph94%30.02 "Hg3 mi
12:00 AM33 °FFog.2 mph92%30.03 "Hg4 mi
11:00 PM
Sat, Mar 28
38 °FFog.2 mph91%30.03 "Hg5 mi
Weather by CustomWeather, © 2015

See weather overviewHow to use our weather pages